Location: Deer Path Park
(40.5570°N, 74.8450°W)
Time: 01:21:32
(UTC-04:00)

Iridium 49 - Visible Passes

Search period start: 26 March 2017 00:00
Search period end: 05 April 2017 00:00
Orbit: 776 x 779 km, 86.4° (Epoch: 24 March)

Date Brightness Start Highest point End Pass type
(mag) Time Alt. Az. Time Alt. Az. Time Alt. Az.
26 Mar 7.2 20:12:39 10° NNW 20:17:38 46° W 20:22:35 10° SSW visible
27 Mar 6.1 19:38:56 10° N 19:44:12 86° W 19:49:25 10° S visible
28 Mar 9.0 20:47:28 10° NW 20:50:53 18° W 20:54:17 10° WSW visible
29 Mar 8.1 20:13:03 10° NNW 20:17:38 32° W 20:22:13 10° SW visible
30 Mar 6.8 19:39:07 10° N 19:44:16 60° W 19:49:22 10° SSW visible
31 Mar 9.4 20:48:47 10° NW 20:50:46 12° WNW 20:52:44 10° W visible
01 Apr 8.8 20:13:36 10° NNW 20:17:35 23° W 20:21:34 10° SW visible
04 Apr 9.3 20:14:28 10° NW 20:17:30 16° WNW 20:20:31 10° WSW visible
